Comisión Nacional del Agua
Subdirección General Técnica
Estación: S.J. 2-18 Gustavo Díaz Ordaz
Clave: C28100
Estado: Tamaulipas
Municipio: Gustavo Díaz Ordaz

Fecha, Precipitación(mm), Temperatura Media(ºC), Temperatura Máxima(ºC), Temperatura Mínima(ºC), Evaporación(mm)
1961/01/01,0.00,14.00,18.50,9.50,-
1961/01/02,4.50,10.25,12.00,8.50,0.60
1961/01/03,2.50,8.75,9.50,8.00,0.20
1961/01/04,1.50,9.00,10.00,8.00,0.20
1961/01/05,3.50,10.25,12.00,8.50,0.90
1961/01/06,0.00,10.75,13.50,8.00,-
1961/01/07,0.00,12.25,13.00,11.50,0.60
1961/01/08,0.00,13.25,17.00,9.50,1.80
1961/01/09,0.00,11.00,15.00,7.00,2.10
1961/01/10,0.00,11.75,20.00,3.50,0.60
1961/01/11,0.00,11.00,16.00,6.00,1.20
1961/01/12,0.00,14.00,21.50,6.50,2.10
1961/01/13,0.00,13.50,23.00,4.00,1.50
1961/01/14,0.00,15.00,24.00,6.00,2.10
1961/01/15,0.00,14.50,24.00,5.00,3.70
1961/01/16,0.00,15.75,25.00,6.50,4.40
1961/01/17,0.00,17.75,26.00,9.50,3.60
1961/01/18,0.00,19.25,26.50,12.00,4.10
1961/01/19,0.00,11.50,12.50,10.50,4.50
1961/01/20,0.00,9.50,10.50,8.50,1.50
1961/01/21,0.00,10.75,15.50,6.00,-
1961/01/22,0.00,14.25,20.50,8.00,1.40
1961/01/23,0.00,17.00,25.50,8.50,1.70
1961/01/24,2.20,22.00,28.50,15.50,0.70
1961/01/25,1.60,6.00,6.50,5.50,0.10
1961/01/26,0.00,5.25,5.50,5.00,-
1961/01/27,1.70,4.25,4.50,4.00,1.80
1961/01/28,0.00,4.75,8.00,1.50,0.10
1961/01/29,0.00,8.00,14.00,2.00,0.40
1961/01/30,0.00,10.25,19.50,1.00,1.30
1961/01/31,0.00,13.00,21.50,4.50,1.80
1961/02/01,0.00,17.00,20.50,13.50,3.30
1961/02/02,0.00,16.25,20.00,12.50,3.20
1961/02/03,0.00,15.50,25.00,6.00,3.50
1961/02/04,0.00,16.50,24.50,8.50,3.90
1961/02/05,0.00,15.75,17.50,14.00,1.70
1961/02/06,0.00,8.00,10.50,5.50,1.60
1961/02/07,0.00,9.00,17.00,1.00,2.40
1961/02/08,0.00,11.75,20.00,3.50,3.20
1961/02/09,0.00,20.75,25.50,16.00,2.00
1961/02/10,0.00,18.25,24.00,12.50,2.70
1961/02/11,0.00,16.25,26.50,6.00,2.20
1961/02/12,0.00,19.00,29.50,8.50,2.80
1961/02/13,0.00,21.50,30.00,13.00,2.70
1961/02/14,0.00,21.50,29.50,13.50,3.90
1961/02/15,0.00,19.75,28.00,11.50,5.20
1961/02/16,0.00,19.00,27.50,10.50,5.10
1961/02/17,0.00,20.75,30.00,11.50,3.60
1961/02/18,0.00,24.00,28.50,19.50,2.20
1961/02/19,0.00,22.00,26.00,18.00,3.40
1961/02/20,2.50,11.00,12.50,9.50,0.40
1961/02/21,0.00,12.25,15.00,9.50,0.80
1961/02/22,0.00,14.50,24.50,4.50,4.00
1961/02/23,0.00,17.75,28.00,7.50,0.50
1961/02/24,0.00,15.25,20.00,10.50,7.90
1961/02/25,0.00,15.50,25.00,6.00,7.00
1961/02/26,0.00,19.75,32.00,7.50,6.30
1961/02/27,0.00,22.00,31.50,12.50,5.70
1961/02/28,0.00,14.00,18.00,10.00,3.20
1961/03/01,0.00,21.00,29.00,13.00,3.50
1961/03/02,0.00,20.25,28.00,12.50,4.30
1961/03/03,0.00,22.25,30.50,14.00,7.70
1961/03/04,0.00,23.00,31.50,14.50,3.10
1961/03/05,0.00,27.00,32.50,21.50,2.90
1961/03/06,0.00,25.75,31.00,20.50,4.20
1961/03/07,0.00,25.25,27.50,23.00,5.40
1961/03/08,0.00,20.25,25.00,15.50,6.00
1961/03/09,0.00,17.75,28.00,7.50,7.20
1961/03/10,0.00,18.25,26.50,10.00,8.20
1961/03/11,0.00,19.50,28.00,11.00,5.80
1961/03/12,0.00,24.25,31.00,17.50,4.20
1961/03/13,0.00,23.00,30.00,16.00,5.20
1961/03/14,0.00,25.00,30.50,19.50,4.30
1961/03/15,0.00,26.75,33.50,20.00,5.70
1961/03/16,0.00,28.00,36.50,19.50,6.80
1961/03/17,0.00,25.75,32.00,19.50,6.50
1961/03/18,0.00,21.75,31.50,12.00,6.60
1961/03/19,0.00,22.50,29.50,15.50,4.20
1961/03/20,0.00,18.50,23.50,13.50,5.00
1961/03/21,0.00,19.50,29.50,9.50,7.30
1961/03/22,0.00,20.75,30.00,11.50,6.10
1961/03/23,0.00,22.25,29.50,15.00,4.00
1961/03/24,0.00,19.25,22.50,16.00,2.80
1961/03/25,0.00,23.75,32.50,15.00,4.80
1961/03/26,0.00,26.25,33.00,19.50,4.10
1961/03/27,0.00,25.00,29.50,20.50,4.70
1961/03/28,0.00,26.75,33.00,20.50,4.30
1961/03/29,0.00,21.25,23.50,19.00,6.50
1961/03/30,0.00,23.75,29.50,18.00,7.20
1961/03/31,0.00,-,-,-,6.60
1961/04/01,0.00,19.50,27.50,11.50,2.80
1961/04/02,0.00,19.00,26.50,11.50,4.10
1961/04/03,0.00,20.25,29.50,11.00,4.50
1961/04/04,0.00,22.00,31.00,13.00,7.30
1961/04/05,18.00,24.75,33.00,16.50,3.20
1961/04/06,0.00,18.00,22.00,14.00,3.10
1961/04/07,0.00,16.00,20.50,11.50,3.90
1961/04/08,0.00,22.50,32.00,13.00,5.50
1961/04/09,0.00,21.75,26.50,17.00,4.80
1961/04/10,0.00,19.50,26.00,13.00,6.10
1961/04/11,0.00,22.50,30.00,15.00,5.00
1961/04/12,0.00,21.00,26.00,16.00,6.80
1961/04/13,0.00,22.00,30.00,14.00,5.80
1961/04/14,0.00,25.25,32.00,18.50,5.00
1961/04/15,0.00,21.75,25.00,18.50,8.00
1961/04/16,0.00,17.50,26.00,9.00,8.20
1961/04/17,0.00,19.25,28.00,10.50,4.20
1961/04/18,0.00,22.00,31.00,13.00,6.10
1961/04/19,0.00,24.50,32.00,17.00,6.70
1961/04/20,0.00,28.00,33.50,22.50,8.60
1961/04/21,0.00,26.50,29.00,24.00,8.60
1961/04/22,0.00,26.50,30.00,23.00,7.60
1961/04/23,0.00,26.00,29.50,22.50,10.80
1961/04/24,0.00,24.75,30.50,19.00,8.90
1961/04/25,0.00,27.25,32.00,22.50,7.40
1961/04/26,0.00,26.50,30.50,22.50,6.40
1961/04/27,0.00,28.00,33.00,23.00,6.30
1961/04/28,0.00,28.25,32.00,24.50,3.20
1961/04/29,23.00,28.50,33.00,24.00,9.70
1961/04/30,0.00,24.50,30.50,18.50,3.10
1961/05/01,0.00,26.25,30.50,22.00,6.80
1961/05/02,1.00,31.50,39.00,24.00,4.40
1961/05/03,0.00,26.75,32.50,21.00,7.50
1961/05/04,0.00,28.25,33.50,23.00,6.20
1961/05/05,0.00,31.00,37.00,25.00,8.40
1961/05/06,0.00,30.50,35.50,25.50,7.20
1961/05/07,0.00,31.00,37.00,25.00,7.70
1961/05/08,0.00,26.50,28.50,24.50,5.90
1961/05/09,0.00,24.75,30.50,19.00,7.30
1961/05/10,0.00,22.75,31.00,14.50,6.60
1961/05/11,0.00,23.25,32.50,14.00,7.00
1961/05/12,0.00,26.00,35.00,17.00,7.50
1961/05/13,0.00,28.25,34.00,22.50,8.40
1961/05/14,0.00,29.00,34.50,23.50,9.30
1961/05/15,0.00,29.50,35.00,24.00,7.60
1961/05/16,0.00,29.50,34.50,24.50,8.30
1961/05/17,0.00,29.75,35.50,24.00,7.40
1961/05/18,0.00,28.75,34.00,23.50,7.60
1961/05/19,0.00,28.00,34.00,22.00,7.30
1961/05/20,0.00,28.75,35.00,22.50,7.70
1961/05/21,0.00,29.25,36.00,22.50,7.80
1961/05/22,0.00,28.75,35.50,22.00,7.60
1961/05/23,0.00,30.25,35.00,25.50,9.10
1961/05/24,0.00,27.50,31.00,24.00,8.10
1961/05/25,0.00,29.50,34.00,25.00,7.20
1961/05/26,14.50,29.50,35.50,23.50,3.80
1961/05/27,0.00,25.00,30.00,20.00,7.00
1961/05/28,0.00,25.25,31.00,19.50,6.70
1961/05/29,0.00,26.25,32.50,20.00,8.30
1961/05/30,0.00,27.00,33.50,20.50,9.00
1961/05/31,0.00,28.25,34.00,22.50,8.50
1961/06/01,0.00,29.00,33.50,24.50,7.50
1961/06/02,0.00,28.00,33.00,23.00,8.70
1961/06/03,0.00,28.50,34.00,23.00,7.80
1961/06/04,0.00,28.75,34.50,23.00,10.40
1961/06/05,0.00,30.00,35.50,24.50,8.80
1961/06/06,0.00,30.25,35.50,25.00,9.90
1961/06/07,0.00,30.25,35.50,25.00,9.30
1961/06/08,10.00,30.25,35.50,25.00,11.20
1961/06/09,0.00,30.50,35.00,26.00,9.90
1961/06/10,0.00,28.25,35.00,21.50,9.10
1961/06/11,0.00,30.25,35.00,25.50,9.10
1961/06/12,0.00,29.25,34.00,24.50,6.80
1961/06/13,0.00,28.50,32.00,25.00,6.10
1961/06/14,0.00,28.75,34.00,23.50,5.70
1961/06/15,0.00,28.25,32.00,24.50,3.90
1961/06/16,0.00,29.75,35.00,24.50,4.60
1961/06/17,0.00,28.75,33.50,24.00,8.60
1961/06/18,23.00,29.25,32.50,26.00,-
1961/06/19,0.00,27.00,31.00,23.00,5.00
1961/06/20,0.00,25.75,31.50,20.00,5.10
1961/06/21,0.00,28.00,34.50,21.50,9.80
1961/06/22,0.00,28.00,34.50,21.50,6.80
1961/06/23,0.00,28.50,34.50,22.50,8.00
1961/06/24,0.00,28.75,35.00,22.50,8.30
1961/06/25,0.00,28.75,35.00,22.50,7.90
1961/06/26,0.00,30.00,36.00,24.00,8.70
1961/06/27,0.00,30.00,35.50,24.50,8.40
1961/06/28,0.00,27.75,31.50,24.00,9.10
1961/06/29,0.00,30.25,35.50,25.00,8.50
1961/06/30,24.00,26.50,29.50,23.50,7.80
1961/07/01,0.00,28.25,34.00,22.50,7.70
1961/07/02,0.00,28.50,35.00,22.00,8.00
1961/07/03,0.00,28.75,34.00,23.50,7.20
1961/07/04,0.00,28.25,34.00,22.50,7.10
1961/07/05,0.00,29.00,34.50,23.50,8.90
1961/07/06,0.00,29.25,35.00,23.50,6.40
1961/07/07,0.00,29.00,35.50,22.50,6.30
1961/07/08,0.00,29.25,36.00,22.50,6.40
1961/07/09,0.00,29.75,36.00,23.50,9.00
1961/07/10,0.00,30.25,36.50,24.00,6.60
1961/07/11,2.50,29.00,34.00,24.00,5.50
1961/07/12,0.00,26.75,31.00,22.50,7.80
1961/07/13,0.00,29.50,34.00,25.00,6.70
1961/07/14,0.00,31.25,36.00,26.50,9.00
1961/07/15,0.00,30.00,35.50,24.50,9.40
1961/07/16,0.00,30.25,36.50,24.00,7.40
1961/07/17,0.00,31.00,36.50,25.50,9.40
1961/07/18,0.00,29.50,36.50,22.50,9.30
1961/07/19,0.00,28.75,34.00,23.50,11.70
1961/07/20,0.00,27.75,31.50,24.00,10.70
1961/07/21,0.00,29.25,35.50,23.00,7.00
1961/07/22,0.00,30.00,36.00,24.00,7.60
1961/07/23,0.00,31.25,37.00,25.50,8.70
1961/07/24,0.00,30.75,36.50,25.00,9.00
1961/07/25,0.00,30.00,37.00,23.00,9.10
1961/07/26,0.00,29.75,35.50,24.00,8.80
1961/07/27,0.00,28.50,33.50,23.50,6.50
1961/07/28,0.00,28.50,34.50,22.50,8.40
1961/07/29,0.00,29.00,35.00,23.00,8.90
1961/07/30,0.00,26.75,31.00,22.50,6.90
1961/07/31,0.00,29.25,36.00,22.50,7.80
1961/08/01,0.00,30.25,36.50,24.00,8.00
1961/08/02,0.00,29.75,36.00,23.50,8.40
1961/08/03,0.00,30.00,36.50,23.50,8.90
1961/08/04,0.00,29.50,37.50,21.50,10.20
1961/08/05,0.00,31.75,37.50,26.00,8.60
1961/08/06,0.00,30.25,37.50,23.00,8.00
1961/08/07,0.00,30.25,37.00,23.50,7.20
1961/08/08,4.50,30.25,35.50,25.00,7.00
1961/08/09,0.00,28.25,34.00,22.50,7.30
1961/08/10,0.00,30.75,35.50,26.00,7.90
1961/08/11,0.00,30.25,34.00,26.50,7.80
1961/08/12,0.00,30.50,35.50,25.50,7.30
1961/08/13,0.00,30.25,36.50,24.00,8.30
1961/08/14,0.00,30.25,37.00,23.50,9.10
1961/08/15,0.00,30.25,37.00,23.50,8.90
1961/08/16,0.00,30.00,36.00,24.00,4.20
1961/08/17,0.00,30.25,36.00,24.50,6.80
1961/08/18,29.50,27.25,30.00,24.50,-
1961/08/19,30.50,28.50,32.50,24.50,-
1961/08/20,0.00,26.00,28.50,23.50,2.90
1961/08/21,0.00,27.50,33.50,21.50,3.80
1961/08/22,0.00,28.75,35.50,22.00,7.60
1961/08/23,0.00,29.00,37.50,20.50,6.30
1961/08/24,0.00,29.75,36.50,23.00,8.00
1961/08/25,0.00,29.75,35.50,24.00,8.00
1961/08/26,0.00,29.75,36.50,23.00,6.20
1961/08/27,0.00,27.75,34.50,21.00,5.70
1961/08/28,0.00,28.00,35.50,20.50,7.00
1961/08/29,0.00,29.50,36.50,22.50,7.30
1961/08/30,0.00,30.00,37.00,23.00,6.80
1961/08/31,0.00,31.00,38.00,24.00,7.00
1961/09/01,0.00,32.00,38.50,25.50,8.90
1961/09/02,0.00,31.00,36.00,26.00,11.20
1961/09/03,0.00,31.50,38.00,25.00,10.80
1961/09/04,0.00,30.50,37.00,24.00,9.20
1961/09/05,0.00,29.00,34.50,23.50,6.00
1961/09/06,0.00,30.00,36.50,23.50,6.50
1961/09/07,0.00,29.25,36.50,22.00,9.20
1961/09/08,3.50,28.00,32.50,23.50,2.40
1961/09/09,0.00,29.00,35.50,22.50,7.20
1961/09/10,2.50,27.50,33.50,21.50,9.30
1961/09/11,0.00,28.00,31.00,25.00,5.20
1961/09/12,0.00,31.75,38.50,25.00,6.60
1961/09/13,4.50,33.00,39.50,26.50,-
1961/09/14,50.00,25.50,30.00,21.00,-
1961/09/15,15.50,23.75,29.00,18.50,-
1961/09/16,5.50,23.25,29.00,17.50,5.50
1961/09/17,0.00,24.25,28.50,20.00,3.60
1961/09/18,0.00,23.75,30.00,17.50,4.90
1961/09/19,0.00,27.00,37.00,17.00,6.30
1961/09/20,0.00,25.75,32.50,19.00,7.50
1961/09/21,0.00,27.50,33.50,21.50,5.90
1961/09/22,0.00,27.50,33.50,21.50,6.30
1961/09/23,0.00,27.75,34.00,21.50,7.00
1961/09/24,0.00,28.25,34.50,22.00,6.70
1961/09/25,0.00,28.50,33.50,23.50,5.20
1961/09/26,0.00,27.25,33.00,21.50,6.50
1961/09/27,0.00,27.75,33.00,22.50,4.80
1961/09/28,0.00,27.50,33.00,22.00,4.80
1961/09/29,0.00,27.00,33.00,21.00,5.70
1961/09/30,0.00,27.75,33.00,22.50,6.20
1961/10/01,0.00,27.75,34.00,21.50,7.10
1961/10/02,0.00,27.50,34.00,21.00,6.70
1961/10/03,0.00,15.50,18.00,13.00,3.40
1961/10/04,0.00,17.00,25.00,9.00,3.50
1961/10/05,0.00,19.50,27.50,11.50,5.00
1961/10/06,0.00,21.00,27.00,15.00,3.60
1961/10/07,0.00,24.50,33.00,16.00,6.00
1961/10/08,0.00,28.25,34.00,22.50,4.10
1961/10/09,0.00,28.75,34.00,23.50,5.70
1961/10/10,0.00,29.00,33.50,24.50,5.80
1961/10/11,0.00,29.00,33.00,25.00,5.90
1961/10/12,0.00,27.00,33.50,20.50,5.80
1961/10/13,0.00,24.75,31.00,18.50,5.70
1961/10/14,0.00,23.00,28.00,18.00,5.60
1961/10/15,0.00,19.75,26.00,13.50,6.00
1961/10/16,0.00,15.75,21.50,10.00,4.50
1961/10/17,0.00,19.75,30.00,9.50,3.90
1961/10/18,0.00,21.75,30.50,13.00,9.90
1961/10/19,0.00,23.00,31.00,15.00,4.20
1961/10/20,0.00,23.25,31.50,15.00,3.90
1961/10/21,0.00,24.00,31.50,16.50,5.10
1961/10/22,0.00,24.00,31.00,17.00,4.70
1961/10/23,0.00,25.50,32.00,19.00,4.50
1961/10/24,0.00,26.25,32.00,20.50,6.40
1961/10/25,8.00,26.25,31.50,21.00,2.60
1961/10/26,0.00,21.50,23.50,19.50,2.60
1961/10/27,0.00,22.00,28.00,16.00,2.30
1961/10/28,0.00,24.00,30.00,18.00,5.60
1961/10/29,0.00,25.25,31.00,19.50,5.20
1961/10/30,0.00,27.25,32.00,22.50,4.80
1961/10/31,0.00,27.25,32.00,22.50,7.20
1961/11/01,0.00,27.25,32.50,22.00,5.00
1961/11/02,0.00,26.25,31.00,21.50,5.00
1961/11/03,0.00,24.75,29.50,20.00,4.70
1961/11/04,0.00,23.00,28.00,18.00,4.30
1961/11/05,35.50,16.25,20.00,12.50,4.40
1961/11/06,0.00,10.50,11.50,9.50,1.10
1961/11/07,0.00,12.25,15.50,9.00,2.40
1961/11/08,0.00,13.00,18.00,8.00,3.50
1961/11/09,0.00,16.50,23.00,10.00,2.70
1961/11/10,0.00,18.50,24.50,12.50,3.40
1961/11/11,0.00,21.75,27.50,16.00,2.00
1961/11/12,1.50,22.00,26.50,17.50,1.50
1961/11/13,0.00,20.00,27.00,13.00,0.20
1961/11/14,2.50,17.50,22.50,12.50,0.10
1961/11/15,0.00,15.25,19.00,11.50,2.20
1961/11/16,0.00,15.50,22.50,8.50,2.10
1961/11/17,0.00,16.50,21.50,11.50,2.00
1961/11/18,0.00,19.25,25.00,13.50,2.10
1961/11/19,0.00,18.50,21.50,15.50,0.90
1961/11/20,0.00,20.75,25.00,16.50,0.90
1961/11/21,0.00,23.00,29.50,16.50,4.00
1961/11/22,0.00,18.50,27.00,10.00,6.10
1961/11/23,0.00,17.00,25.50,8.50,1.90
1961/11/24,0.00,18.00,27.50,8.50,3.00
1961/11/25,0.00,20.00,28.50,11.50,5.80
1961/11/26,0.00,21.50,29.50,13.50,3.30
1961/11/27,0.00,21.50,29.50,13.50,3.70
1961/11/28,0.00,15.00,17.00,13.00,1.60
1961/11/29,0.00,15.50,18.50,12.50,0.70
1961/11/30,0.00,16.25,20.50,12.00,0.80
1961/12/01,0.00,20.00,26.50,13.50,1.60
1961/12/02,0.00,22.75,29.50,16.00,3.20
1961/12/03,0.00,23.00,29.00,17.00,5.30
1961/12/04,0.00,25.00,30.00,20.00,3.70
1961/12/05,0.00,23.25,29.00,17.50,4.00
1961/12/06,0.00,21.00,26.50,15.50,0.90
1961/12/07,0.00,21.25,25.50,17.00,2.00
1961/12/08,0.00,21.25,25.50,17.00,1.80
1961/12/09,0.00,21.75,28.00,15.50,1.30
1961/12/10,0.00,21.75,27.50,16.00,1.60
1961/12/11,2.00,22.25,26.00,18.50,1.60
1961/12/12,0.00,10.75,11.50,10.00,1.20
1961/12/13,0.00,6.00,8.00,4.00,0.90
1961/12/14,0.00,8.00,11.00,5.00,0.40
1961/12/15,1.00,10.00,13.00,7.00,0.60
1961/12/16,1.50,12.50,15.00,10.00,0.50
1961/12/17,0.00,19.75,27.50,12.00,2.70
1961/12/18,0.00,16.25,26.50,6.00,2.00
1961/12/19,0.00,17.75,25.00,10.50,3.00
1961/12/20,0.00,19.00,27.00,11.00,2.80
1961/12/21,0.00,18.50,24.00,13.00,2.30
1961/12/22,0.00,19.50,25.50,13.50,2.30
1961/12/23,0.00,12.00,18.50,5.50,2.40
1961/12/24,0.00,10.25,19.50,1.00,1.80
1961/12/25,0.00,13.25,20.00,6.50,2.40
1961/12/26,0.00,18.00,28.50,7.50,2.50
1961/12/27,0.00,14.50,19.00,10.00,2.80
1961/12/28,0.00,9.50,16.00,3.00,2.80
1961/12/29,0.00,8.50,15.00,2.00,1.50
1961/12/30,0.00,14.25,24.50,4.00,3.80
1961/12/31,0.00,14.25,22.50,6.00,2.30
1962/01/01,0.00,12.25,19.50,5.00,3.00
1962/01/02,0.00,11.00,21.00,1.00,3.10
1962/01/03,0.00,16.00,23.50,8.50,2.80
1962/01/04,0.00,19.25,28.00,10.50,5.60
1962/01/05,0.00,16.00,20.50,11.50,6.60
1962/01/06,0.00,11.50,20.50,2.50,4.20
1962/01/07,0.00,13.00,23.00,3.00,4.10
1962/01/08,0.00,15.25,26.00,4.50,4.00
1962/01/09,0.00,8.25,10.00,6.50,-
1962/01/10,0.00,0.25,3.00,-2.50,-
1962/01/11,0.00,-1.25,1.00,-3.50,-
1962/01/12,0.00,0.00,9.50,-9.50,-
1962/01/13,0.00,3.75,12.00,-4.50,-
1962/01/14,0.00,10.75,15.50,6.00,3.80
1962/01/15,0.00,13.50,19.50,7.50,3.80
1962/01/16,0.00,15.00,18.50,11.50,4.40
1962/01/17,1.00,15.00,18.00,12.00,-
1962/01/18,0.00,13.00,14.50,11.50,0.60
1962/01/19,7.50,13.25,15.00,11.50,1.00
1962/01/20,1.00,10.75,12.50,9.00,0.80
1962/01/21,0.00,14.75,21.00,8.50,1.20
1962/01/22,0.00,18.25,27.00,9.50,1.50
1962/01/23,1.50,7.25,9.00,5.50,0.10
1962/01/24,2.00,7.75,10.00,5.50,0.40
1962/01/25,0.00,15.25,24.00,6.50,1.70
1962/01/26,0.00,16.25,24.50,8.00,3.30
1962/01/27,0.00,14.75,22.00,7.50,5.00
1962/01/28,0.00,11.00,19.50,2.50,5.20
1962/01/29,0.00,11.25,21.00,1.50,3.90
1962/01/30,0.00,13.75,22.50,5.00,2.90
1962/01/31,0.00,15.50,24.50,6.50,3.10
1962/02/01,0.00,16.75,24.50,9.00,3.10
1962/02/02,0.00,17.50,25.00,10.00,4.10
1962/02/03,0.00,20.75,31.00,10.50,5.00
1962/02/04,0.00,20.25,30.50,10.00,2.50
1962/02/05,0.00,20.00,29.50,10.50,3.50
1962/02/06,0.00,18.50,26.00,11.00,2.30
1962/02/07,0.00,18.25,27.50,9.00,4.50
1962/02/08,0.00,17.25,23.00,11.50,3.70
1962/02/09,0.00,22.25,29.50,15.00,5.80
1962/02/10,0.00,22.00,30.00,14.00,3.70
1962/02/11,0.00,23.25,30.50,16.00,6.50
1962/02/12,0.00,23.75,31.00,16.50,7.40
1962/02/13,0.00,22.50,31.00,14.00,4.10
1962/02/14,0.00,21.50,30.00,13.00,4.90
1962/02/15,0.00,22.75,30.00,15.50,6.30
1962/02/16,0.00,22.25,32.50,12.00,6.80
1962/02/17,0.00,24.00,33.00,15.00,6.70
1962/02/18,0.00,24.00,31.50,16.50,6.80
1962/02/19,0.00,19.75,24.00,15.50,2.80
1962/02/20,0.00,24.50,31.50,17.50,4.60
1962/02/21,0.00,26.50,34.50,18.50,5.70
1962/02/22,0.00,24.75,29.50,20.00,7.00
1962/02/23,0.00,24.75,30.00,19.50,4.40
1962/02/24,0.00,23.00,34.00,12.00,7.60
1962/02/25,0.00,23.25,33.50,13.00,5.50
1962/02/26,0.00,23.50,34.50,12.50,7.20
1962/02/27,1.00,22.50,30.50,14.50,5.50
1962/02/28,0.00,8.75,12.50,5.00,3.30
1962/03/01,0.00,8.75,13.00,4.50,3.40
1962/03/02,0.00,11.50,20.50,2.50,4.90
1962/03/03,0.00,16.50,30.00,3.00,6.20
1962/03/04,0.00,18.00,29.50,6.50,4.80
1962/03/05,0.00,16.50,24.50,8.50,4.60
1962/03/06,0.00,15.50,23.50,7.50,6.10
1962/03/07,0.00,19.50,30.00,9.00,6.90
1962/03/08,0.00,21.25,31.00,11.50,5.10
1962/03/09,0.00,23.00,31.50,14.50,7.10
1962/03/10,0.00,25.50,30.50,20.50,8.00
1962/03/11,0.00,21.50,32.00,11.00,5.60
1962/03/12,0.00,21.50,31.50,11.50,6.40
1962/03/13,40.00,16.00,21.50,10.50,7.60
1962/03/14,0.00,19.50,28.00,11.00,1.50
1962/03/15,0.00,10.00,13.00,7.00,2.90
1962/03/16,0.00,9.75,15.00,4.50,2.90
1962/03/17,0.00,12.25,17.00,7.50,2.70
1962/03/18,0.00,13.75,18.50,9.00,4.40
1962/03/19,0.00,21.00,29.50,12.50,4.40
1962/03/20,0.00,22.25,28.50,16.00,9.00
1962/03/21,0.00,24.75,30.50,19.00,7.40
1962/03/22,0.00,24.50,30.50,18.50,6.20
1962/03/23,0.00,22.50,30.00,15.00,7.00
1962/03/24,0.00,22.25,29.50,15.00,6.70
1962/03/25,0.00,22.00,30.00,14.00,9.90
1962/03/26,0.00,19.50,29.00,10.00,3.80
1962/03/27,0.00,20.00,30.50,9.50,9.00
1962/03/28,0.00,20.75,28.50,13.00,7.60
1962/03/29,0.00,22.75,29.00,16.50,8.10
1962/03/30,0.00,26.00,31.00,21.00,7.50
1962/03/31,0.00,16.75,19.50,14.00,11.10
1962/04/01,0.00,17.00,25.50,8.50,4.50
1962/04/02,0.00,17.00,25.00,9.00,5.90
1962/04/03,0.00,18.50,25.50,11.50,6.60
1962/04/04,2.00,17.50,23.00,12.00,7.60
1962/04/05,0.00,20.50,26.50,14.50,7.60
1962/04/06,20.00,23.25,29.50,17.00,7.40
1962/04/07,0.00,22.75,31.00,14.50,7.50
1962/04/08,0.00,24.75,34.50,15.00,8.00
1962/04/09,0.00,24.50,32.50,16.50,7.30
1962/04/10,0.00,29.00,37.00,21.00,7.50
1962/04/11,0.00,30.00,36.50,23.50,7.80
1962/04/12,0.00,24.25,28.50,20.00,6.50
1962/04/13,0.00,21.75,29.00,14.50,8.10
1962/04/14,0.00,24.50,33.00,16.00,5.90
1962/04/15,0.00,25.75,33.50,18.00,7.10
1962/04/16,0.00,25.25,30.50,20.00,9.70
1962/04/17,0.00,25.50,33.50,17.50,9.30
1962/04/18,0.00,26.25,33.00,19.50,8.60
1962/04/19,0.00,24.50,33.50,15.50,8.80
1962/04/20,0.00,24.00,31.50,16.50,9.00
1962/04/21,0.00,24.75,31.00,18.50,9.80
1962/04/22,0.00,25.25,30.50,20.00,8.70
1962/04/23,0.00,24.00,29.50,18.50,7.00
1962/04/24,0.00,23.25,31.00,15.50,7.80
1962/04/25,0.00,26.25,34.50,18.00,7.50
1962/04/26,0.00,27.00,32.00,22.00,7.30
1962/04/27,0.00,28.75,34.50,23.00,9.60
1962/04/28,0.00,28.50,37.50,19.50,6.70
1962/04/29,0.00,29.00,36.50,21.50,7.20
1962/04/30,0.00,30.25,38.00,22.50,4.30
1962/05/01,0.00,25.00,28.50,21.50,4.10
1962/05/02,11.50,21.25,22.50,20.00,3.10
1962/05/03,0.00,21.75,25.00,18.50,4.70
1962/05/04,0.00,24.00,30.00,18.00,7.90
1962/05/05,0.00,23.50,31.50,15.50,9.10
1962/05/06,0.00,24.50,32.50,16.50,7.80
1962/05/07,0.00,24.25,31.50,17.00,7.40
1962/05/08,0.00,26.50,31.50,21.50,8.60
1962/05/09,0.00,26.75,32.00,21.50,8.60
1962/05/10,0.00,26.25,32.00,20.50,7.90
1962/05/11,0.00,26.25,32.50,20.00,6.80
1962/05/12,0.00,27.00,32.00,22.00,8.00
1962/05/13,0.00,28.25,33.50,23.00,6.90
1962/05/14,0.00,27.50,32.50,22.50,7.80
1962/05/15,0.00,28.00,33.50,22.50,7.30
1962/05/16,0.00,27.50,32.00,23.00,8.60
1962/05/17,0.00,27.00,32.50,21.50,8.30
1962/05/18,0.00,27.50,33.00,22.00,8.00
1962/05/19,0.00,27.75,32.00,23.50,8.30
1962/05/20,0.00,28.75,33.50,24.00,8.90
1962/05/21,0.00,29.25,35.00,23.50,8.60
1962/05/22,0.00,28.00,34.50,21.50,8.30
1962/05/23,0.00,27.75,33.50,22.00,8.00
1962/05/24,0.00,30.50,35.50,25.50,8.80
1962/05/25,0.00,30.75,35.50,26.00,8.80
1962/05/26,0.00,29.25,33.50,25.00,9.10
1962/05/27,0.00,29.75,34.00,25.50,9.20
1962/05/28,0.00,30.00,35.00,25.00,9.00
1962/05/29,0.00,31.25,36.50,26.00,9.70
1962/05/30,0.00,27.25,35.50,19.00,8.10
1962/05/31,0.00,29.00,33.50,24.50,8.20
1962/06/01,0.00,29.25,32.50,26.00,5.30
1962/06/02,0.00,28.50,31.50,25.50,5.10
1962/06/03,2.50,25.50,30.50,20.50,7.30
1962/06/04,0.00,28.50,34.50,22.50,7.70
1962/06/05,0.00,29.25,33.50,25.00,5.20
1962/06/06,0.00,30.50,36.50,24.50,10.00
1962/06/07,0.00,30.50,35.50,25.50,10.80
1962/06/08,0.00,30.50,35.50,25.50,9.10
1962/06/09,0.00,30.75,35.50,26.00,8.20
1962/06/10,0.00,26.50,31.00,22.00,7.70
1962/06/11,0.00,29.00,34.50,23.50,7.70
1962/06/12,0.00,29.50,35.00,24.00,8.00
1962/06/13,0.00,30.25,35.50,25.00,8.00
1962/06/14,0.00,29.00,34.50,23.50,8.80
1962/06/15,0.00,29.25,34.50,24.00,10.10
1962/06/16,0.00,29.50,35.00,24.00,8.10
1962/06/17,0.00,29.50,35.50,23.50,9.50
1962/06/18,0.00,30.00,35.50,24.50,8.80
1962/06/19,0.00,31.25,36.50,26.00,8.90
1962/06/20,1.00,31.25,36.50,26.00,7.00
1962/06/21,0.00,29.50,35.50,23.50,7.90
1962/06/22,0.00,29.00,34.50,23.50,7.80
1962/06/23,0.00,29.50,35.50,23.50,9.30
1962/06/24,0.00,30.25,36.00,24.50,8.90
1962/06/25,5.00,29.50,34.50,24.50,4.40
1962/06/26,20.00,26.00,30.50,21.50,0.30
1962/06/27,2.00,25.50,29.50,21.50,1.00
1962/06/28,0.00,25.50,29.50,21.50,5.30
1962/06/29,0.00,26.00,33.00,19.00,8.70
1962/06/30,0.00,26.50,34.50,18.50,8.40
1962/07/01,0.00,29.75,35.50,24.00,7.70
1962/07/02,0.00,28.50,33.50,23.50,8.90
1962/07/03,0.00,30.00,35.50,24.50,8.70
1962/07/04,0.00,29.50,36.00,23.00,8.30
1962/07/05,0.00,29.50,36.50,22.50,10.50
1962/07/06,0.00,29.25,35.50,23.00,8.50
1962/07/07,0.00,29.75,36.00,23.50,8.40
1962/07/08,0.00,30.50,36.50,24.50,8.50
1962/07/09,0.00,30.75,37.00,24.50,9.60
1962/07/10,0.00,31.75,38.50,25.00,13.50
1962/07/11,0.00,30.25,37.00,23.50,9.70
1962/07/12,0.00,30.25,37.00,23.50,9.10
1962/07/13,0.00,31.25,38.00,24.50,9.30
1962/07/14,0.00,31.75,38.50,25.00,9.60
1962/07/15,0.00,31.00,37.50,24.50,8.50
1962/07/16,0.00,31.00,37.50,24.50,10.20
1962/07/17,0.00,31.50,36.50,26.50,8.80
1962/07/18,0.00,30.75,37.00,24.50,9.30
1962/07/19,0.00,30.25,36.50,24.00,9.70
1962/07/20,0.00,30.75,36.50,25.00,9.50
1962/07/21,0.00,30.50,36.50,24.50,9.60
1962/07/22,0.00,32.25,38.00,26.50,8.80
1962/07/23,0.00,29.50,36.50,22.50,9.30
1962/07/24,0.00,30.75,36.50,25.00,6.10
1962/07/25,0.00,31.25,38.50,24.00,9.60
1962/07/26,0.00,31.50,37.50,25.50,11.50
1962/07/27,0.00,31.50,37.00,26.00,8.70
1962/07/28,0.00,32.00,38.50,25.50,8.40
1962/07/29,0.00,31.75,39.00,24.50,10.20
1962/07/30,0.00,30.50,37.50,23.50,11.30
1962/07/31,0.00,31.75,38.50,25.00,9.50
1962/08/01,0.00,31.75,38.00,25.50,10.00
1962/08/02,0.00,31.75,38.50,25.00,11.40
1962/08/03,0.00,31.00,37.50,24.50,10.60
1962/08/04,0.00,32.00,39.00,25.00,9.60
1962/08/05,0.00,32.75,39.50,26.00,8.80
1962/08/06,0.00,32.75,40.00,25.50,11.90
1962/08/07,0.00,32.25,39.50,25.00,9.80
1962/08/08,0.00,31.50,39.50,23.50,9.00
1962/08/09,0.00,31.75,39.50,24.00,8.50
1962/08/10,0.00,31.50,39.50,23.50,10.00
1962/08/11,0.00,32.00,39.50,24.50,8.60
1962/08/12,0.00,32.50,40.00,25.00,10.70
1962/08/13,0.00,30.50,38.50,22.50,8.60
1962/08/14,0.00,32.25,39.50,25.00,10.40
1962/08/15,50.00,32.25,40.00,24.50,3.40
1962/08/16,0.00,27.50,34.50,20.50,5.70
1962/08/17,0.00,29.25,35.50,23.00,7.90
1962/08/18,0.00,30.25,36.50,24.00,8.10
1962/08/19,0.00,30.75,36.50,25.00,8.70